Regional Weather Roundup
Issued by NWS Wakefield, VA

Home | Current Version | Previous Version | Text Only | Print | Product List | Glossary On
Versions: 1 2 3 4 5 6 7 8 9 10 11 12 13 14 15 16 17 18 19 20 21 22 23 24 25 26 27 28 29 30 31 32 33 34 35 36 37 38 39 40 41 42 43 44 45 46 47 48 49 50
000
ASUS41 KAKQ 010710
RWRAKQ

REGIONAL WEATHER ROUNDUP
NATIONAL WEATHER SERVICE WAKEFIELD VA
200 AM EST SUN FEB 01 2015

Note: "fair" indicates few or no clouds below 12,000 feet with no
significant weather and/or obstructions to visibility. * = Denotes
station may not report precipitation (e.g., rain,snow,etc.),
thunder or fog.

VAZ042-051-052>054-056-010800-
NORTHERN VIRGINIA

CITY           SKY/WX    TMP DP  RH WIND       PRES   REMARKS
WASH NATIONAL  MOCLDY    28  17  63 CALM      30.29S
DULLES         MOCLDY    20  15  81 CALM      30.27S
FORT BELVOIR   MOCLDY    20  16  82 NW1       30.29S
QUANTICO       MOCLDY    24  16  71 NW7       30.31R
FREDERICKSBRG* MOCLDY    25  15  67 CALM      30.28R
STAFFORD*      MOCLDY    21  15  76 CALM      30.33R
WARRENTON      MOCLDY    22  22  99 CALM      30.27R
CULPEPER*      CLOUDY    21  18  86 CALM      30.28R
MANASSAS*      MOCLDY    21  18  86 CALM      30.29R
LEESBURG*      MOCLDY    21  18  86 CALM      30.28R
WINCHESTER     MOCLDY    27  12  54 CALM      30.25R
FRONT ROYAL*   FAIR      23  18  80 CALM      30.24R
LURAY*         FAIR      27  23  86 CALM      30.24S
$$

VAZ048-049-060>072-079>083-010800-
CENTRAL AND SOUTH CENTRAL VIRGINIA

CITY           SKY/WX    TMP DP  RH WIND       PRES   REMARKS
RICHMOND       PTCLDY    25  16  68 CALM      30.25S
CHESTERFIELD*  FAIR      23   7  50 CALM      30.25S
PETERSBURG*    PTCLDY    25  21  87 CALM      30.25S
HANOVER        CLEAR     21  13  71 CALM      30.28R
TAPPAHANNOCK*  CLEAR     22  13  68 CALM      30.28R
QUINTON*       FAIR      21  15  76 CALM      30.27R
CHARLOTTSVILLE CLOUDY    28  13  53 N5        30.24S
GORDONSVILLE*  FAIR      24  17  74 CALM      30.26R
ORANGE*        CLOUDY    27  19  74 CALM      30.28R
LOUISA*        MOCLDY    27  12  54 CALM      30.25R
BUMPASS*       FAIR      25  10  52 CALM      30.26R
FARMVILLE*     CLOUDY    32  19  58 CALM      30.24R
CREWE*         FAIR      30  15  51 CALM      30.23S
FORT PICKETT*  FAIR      32  15  50 SW3       30.24S
CHASE CITY*    FAIR      33  24  69 CALM      30.25S
CLARKSVILLE*   FAIR      32  19  59 CALM      30.25R
SOUTH HILL*    MOCLDY    31  13  46 CALM      30.31S
LAWRENCEVILLE* FAIR      29  18  64 CALM      30.25S
EMPORIA*       PTCLDY    27  19  74 CALM      30.27F
$$

VAZ088>098-010800-
SOUTHEAST VIRGINIA

CITY           SKY/WX    TMP DP  RH WIND       PRES   REMARKS
NORFOLK        CLEAR     28  13  53 SW3       30.26S
VIRGINIA BEACH PTCLDY    25  16  68 CALM      30.26S
NORFOLK NAVAL  CLEAR     31  15  52 CALM      30.28R
WEST POINT*    CLEAR     25  15  64 CALM      30.29R
SALUDA*        FAIR      24  19  82 CALM      30.27S
NEWPORT NEWS   CLEAR     25  18  74 CALM      30.27R
LANGLEY AFB    CLEAR     24  20  83 CALM      30.27R
FORT EUSTIS    CLEAR     25  19  76 E1        30.25R
WILLIAMSBURG*    N/A     25  21  86 CALM      30.27S
HR EXEC AP*    FAIR      19  16  86 CALM      30.29R
FRANKLIN*      CLEAR     23  18  80 CALM      30.27S
WAKEFIELD      CLEAR     24  17  74 CALM      30.26S
$$

VAZ020-022-025-037-045-010800-
WEST CENTRAL AND SOUTHWEST VIRGINIA

CITY           SKY/WX    TMP DP  RH WIND       PRES   REMARKS
STAUNTON*      CLOUDY    29  19  67 CALM      30.23S
WAYNESBORO*    FAIR      35   4  27 W3        30.20S
HOT SPRINGS VA CLOUDY    28   1  32 W15       30.09S WCI  16
LYNCHBURG      CLOUDY    33  12  41 CALM      30.24S
DANVILLE       CLOUDY    31  18  58 SW3       30.26R
SOUTH BOSTON*  FAIR      28  20  69 CALM      30.25S
MARTINSVILLE   CLOUDY    30  19  62 CALM      30.26R
ROANOKE        CLOUDY    36  11  35 N7        30.24F
BLACKSBURG     CLOUDY    32  14  46 W3        30.24R
DUBLIN*        CLOUDY    33  16  49 SW3       30.23R
MARION*        CLOUDY    35   8  32 W9        30.22F
HILLSVILLE*    CLOUDY    32   8  35 S5        30.19S
RICHLANDS*     CLOUDY    32   9  38 CALM      30.17F
WISE*          CLOUDY    36   9  32 CALM      30.18R
ABINGDON*      CLOUDY    35  16  46 E7        30.19F
$$

MDZ021>025-VAZ099-100-010800-
SOUTHERN MARYLAND AND THE DELMARVA PENINSULA

CITY           SKY/WX    TMP DP  RH WIND       PRES   REMARKS
PATUXENT RIVER CLEAR     20  11  68 SW5       30.28R
BAY BRIDGE APT   N/A     23  16  74 CALM      30.28S
LEONARDTOWN    CLEAR     21  12  68 CALM      30.29S
DOVER          CLEAR     21  12  66 SW5       30.27S
GEORGETOWN     CLEAR     19  13  77 CALM      30.29R
EASTON         CLEAR     22  17  82 CALM      30.31S
CAMBRIDGE      CLEAR     23  18  80 CALM      30.28S
SALISBURY      CLEAR     20  11  68 CALM      30.29R
OCEAN CITY     CLEAR     19  13  77 W3        30.29R
WALLOPS ISLAND CLEAR     20  13  74 SW8       30.30R
ACCOMACK*      CLEAR     21  16  79 E3        30.28S
$$

NCZ012>017-030>032-010800-
NORTH CENTRAL AND EASTERN NORTH CAROLINA

CITY           SKY/WX    TMP DP  RH WIND       PRES   REMARKS
ROANOKE RAPIDS FAIR      30  23  74 SW3       30.26F
RALEIGH        CLOUDY    36  16  44 CALM      30.27S
ELIZABETH CITY CLEAR     32  21  64 SW5       30.28S
AHOSKIE*       PTCLDY    30  16  56 CALM      30.28S
EDENTON*       CLEAR     33  22  63 SW7       30.29R
CURRITUCK*     CLEAR     28  23  84 CALM      30.28S
KILL DEVIL HLS CLEAR     34  23  65 SW3       30.26F
MANTEO         CLEAR     34  25  69 CALM      30.29S
CAPE HATTERAS  CLEAR     36  22  56 W7        30.30S
TARBORO*       FAIR      29  26  88 CALM      30.29S
GOLDSBORO      MOCLDY    35  27  73 CALM      30.27F
WASHINGTON     CLEAR     32  18  56 CALM      30.29S
GREENVILLE     PTCLDY    34  21  60 SW5       30.29S
NEW BERN       PTCLDY    35  23  61 SW6       30.31F
WILMINGTON     CLEAR     31  28  89 CALM      30.30F
$$

VAZ048-010800-
ELSEWHERE

CITY           SKY/WX    TMP DP  RH WIND       PRES   REMARKS
HARRISBURG PA  PTCLDY    10   7  87 CALM      30.25R
BALTIMORE      PTCLDY    19  11  70 CALM      30.27S
ANNAPOLIS      CLEAR     22  16  78 CALM      30.28R
ANDREWS AFB    MOCLDY    20  13  75 S2        30.27R
PHILADELPHIA   PTCLDY    23  11  60 SW7       30.26F
HENDERSON NC   CLOUDY    32  19  57 CALM      30.25S
GREENSBORO     MOCLDY    38  13  35 SW6       30.23S
ROCKY MOUNT    CLOUDY    33  21  61 CALM      30.28S
$$

VAZ100-010800-
MARINE

STATION/POSITION TIME  TEMP    WIND        PRES    WAVE   SWELL
                       AIR SEA DIR/SP/G            HT/PER HT/PER
                 (UTC) (F)     (DEG/KT/KT) (MB)    (FT/S) (FT/S)
BRANDYWINE LGT   0700   30 34  320/  7/  9 1025.2R
CAPE MAY NJ      0700   29 32              1024.7R
LEWES DE         0700   27 35  290/  8/ 10 1025.1S
15NM E FENWICK I 0700   32 39              1024.7R   3/ 4
OCEAN-CITY-INLET 0700      32  310/  5/  6 1025.1R
WACHAPREAGUE VA  0700   22 32   CALM  /  1 1025.3S
THOMAS POINT MD  0700   29 35  250/  2/  3 1026.5R
GOOSES REEF MD   0700   30        CALM     1024.4S
COVE POINT MD    0700   29      CALM  /  1 1025.0S
SOLOMONS ISLAND  0700      36                N/A
BISHOPS HEAD MD  0700   30 31   60/  3/  4 1024.8S
PINEY POINT MD   0700          130/  2/  2   N/A
POTOMAC MD       0700   33     180/  4/  4 1024.3S
CAMBRIDGE MD     0700   23 33  190/  4/  5 1025.4R
LEWISETTA VA     0700   26 33     CALM     1025.3R
RAPPAHANNOCK LGT 0700           70/  7/  8 1025.5F
STINGRAY PT      0700   34      90/  8/  8 1025.4R
YORK RVR RNG VA  0700   36     130/  4/  4 1024.1R
YORKTOWN VA      0700   29 37   CALM  /  1 1024.5R
JAMESTOWN VA     0700   34     310/  4/  4   N/A
DOMINION TERM VA 0700   35     240/  8/ 10 1024.6R
KIPTOPEKE VA     0700      41   80/  8/  9   N/A
CHES BAY BRIDGE  0700      38  200/  3/  5 1024.3S
CAPE HENRY VA    0700   32     190/  1/  3 1023.3F
CHESAPEAKE LGHT  0600   38     220/  5/  5 1025.7F
WILLOUBY STN VA  0700   34     220/  5/  5 1025.0R
S CRANEY ISL VA  0700          220/  4/  6 1024.6R
CAPE HENRY BUOY  0700      41                N/A     2/ 7
1ST LANDING BUOY 0700   35     180/  4/  4 1024.4F
CAPE CHARLES BUO 0600      40                N/A     2/ 7   2/ 7
OFFSHORE WE BUOY 0700      43                N/A     3/ 6   3/ 6
64NM E OF VA BCH 0700   41 48  270/  8/ 10 1024.8F   4/ 8   3/ 8
DUCK PIER NC     0700   36 40  230/  7/  9 1024.3S
44100 DUCK FRF   0700      43                N/A     4/ 8
44056 DUCK FRF   0700      41                N/A     3/ 8
OREGON INLET NC  0700   37 39  220/  6/  7 1025.4F
HATTERAS NC      0700      41  250/  5/  7 1026.2F


USA.gov is the U.S. government's official web portal to all federal, state and local government web resources and services.